Main page
METAR-TAF:

METAR-TAF

Airports :

Masjed Soleyman, Iran

latitude: 31-59N, longitude: 049-16E, elevation: 372 m

Current weather observation

The report was made 1 hour and 0 minutes ago, at 14:00 UTC
Wind 4 kt from the West/Northwest
Temperature 25°C
Humidity 17%
Pressure 1015 hPa
Visibility 10 km or more
no clouds below 1500 m and no cumulonimbus

METAR: OIAI 241400Z 30004KT CAVOK 25/M02 Q1015

Time: 19:30 (15:00 UTC)


TAF: missing

Weather observations and forecasts of more than 4000 airports (METAR and TAF reports).

The available stations are represented by yellow and red dots on the map.

Hover mouse over dot to see the name of the station.

Then click to see weather observations and forecasts.

To change the map : click on the green buttons with a black cross to zoom in, on the green button with a dash to zoom out, or on the green arrows for adjacent maps.


METAR-TAF: